Temperature
5 5 5 6 6 6 6 6 6 7 7 7 7 7 7 7 7 7 8 8 8 8 8 8 7 7 7 7 7 7 7 7 7 7 7 7 7 7 7 7 7 7 7
4 4 5 5 5 5 6 6 6 6 6 6 6 6 7 7 7 7 7 7 7 7 7 7 7 7 6 6 6 6 6 6 6 6 7 7 7 7 7 7 7 6 7
4 4 4 4 5 5 5 5 5 5 5 6 6 6 6 6 6 6 6 6 6 6 7 6 6 6 6 6 6 6 6 6 6 6 6 6 6 6 6 6 6 6 6
3 3 3 4 4 4 4 4 5 5 5 5 5 5 5 6 6 6 6 6 6 6 6 6 6 6 5 5 5 5 5 5 5 5 5 5 5 5 5 5 5 5 5
3 3 3 3 3 4 4 4 4 5 5 5 5 5 5 5 5 5 5 5 5 5 5 5 5 5 5 5 4 4 4 4 4 4 4 5 5 4 4 5 5 5 5
3 3 3 3 3 3 3 4 4 4 4 4 4 4 4 4 4 4 4 4 4 4 4 4 4 4 4 4 4 4 4 4 3 3 3 4 4 4 4 4 4 4 4
2 2 3 3 3 3 3 3 3 3 3 3 3 3 3 3 3 3 4 3 3 3 3 3 3 3 3 3 3 4 4 3 3 3 3 3 4 4 4 4 4 4 4
2 2 2 2 2 2 2 3 3 3 3 3 3 3 3 3 3 3 3 3 3 3 3 3 3 3 3 3 3 3 3 3 3 3 3 3 3 3 4 4 4 3 3
2 2 2 2 2 2 2 2 2 2 2 2 2 2 2 2 2 2 2 2 2 2 2 2 2 2 2 2 2 2 2 2 2 2 2 2 3 3 3 3 3 2 2
1 1 1 1 1 1 1 1 1 1 1 1 1 1 1 1 1 2 1 1 1 1 1 2 2 1 1 1 1 1 1 1 1 2 2 2 2 2 2 2 2 2 2
1 1 1 1 1 1 1 1 1 1 1 1 1 1 1 1 1 1 1 0 0 0 0 1 1 1 1 1 1 1 1 1 1 1 1 1 1 2 2 2 2 2 2
1 1 1 1 1 0 0 0 0 0 0 0 0 0 0 0 0 0 0 -0 -0 -0 -0 -0 -0 0 0 0 0 0 0 0 0 0 0 0 1 1 1 1 1 1 1
0 0 0 0 0 -0 -0 -0 -0 -1 -1 -1 -1 -1 -1 -0 -0 -0 -0 -0 -0 -0 -0 -1 -1 -0 -0 -0 -0 -0 -0 -0 -0 -0 -0 -0 -0 0 0 0 0 0 0
-0 -0 -0 -0 -0 -0 -1 -1 -1 -1 -1 -2 -2 -2 -1 -1 -1 -1 -1 -1 -1 -1 -1 -1 -1 -1 -1 -1 -1 -1 -1 -1 -1 -1 -1 -1 -1 -1 -0 -0 -0 -0 -0
-0 -1 -1 -1 -1 -1 -1 -1 -1 -2 -2 -2 -2 -2 -2 -2 -1 -1 -2 -1 -1 -1 -1 -1 -1 -1 -1 -1 -1 -1 -1 -1 -1 -1 -1 -1 -1 -1 -1 -1 -1 -1 -1
-1 -1 -1 -1 -1 -1 -1 -1 -1 -2 -2 -2 -2 -2 -2 -2 -2 -1 -1 -2 -2 -2 -2 -2 -2 -2 -2 -2 -2 -2 -2 -2 -2 -2 -2 -2 -2 -2 -2 -2 -2 -2 -1
-1 -1 -1 -1 -2 -2 -2 -2 -2 -2 -2 -2 -2 -2 -2 -2 -2 -2 -2 -2 -2 -2 -2 -2 -2 -3 -3 -3 -3 -3 -3 -3 -2 -2 -2 -2 -2 -2 -2 -2 -2 -2 -2
-1 -1 -2 -2 -2 -2 -2 -2 -2 -2 -2 -2 -2 -2 -2 -2 -2 -2 -2 -2 -2 -2 -3 -3 -3 -3 -3 -3 -3 -3 -3 -3 -3 -3 -3 -3 -3 -3 -3 -3 -3 -3 -3
-2 -2 -2 -2 -2 -2 -3 -3 -3 -3 -3 -3 -3 -2 -3 -3 -3 -3 -3 -3 -3 -3 -3 -3 -3 -3 -3 -3 -3 -3 -3 -3 -3 -3 -3 -3 -3 -3 -3 -3 -3 -3 -3
-2 -2 -2 -2 -2 -3 -3 -3 -3 -3 -3 -3 -3 -3 -3 -3 -3 -3 -3 -4 -4 -4 -4 -4 -4 -4 -4 -4 -3 -3 -3 -3 -3 -3 -4 -4 -4 -4 -4 -3 -4 -4 -4
-2 -3 -3 -3 -3 -3 -3 -4 -4 -4 -4 -4 -4 -4 -4 -4 -4 -4 -4 -4 -4 -4 -4 -4 -4 -4 -4 -4 -4 -4 -4 -4 -4 -4 -4 -4 -4 -4 -4 -4 -4 -4 -4
-3 -3 -3 -3 -3 -4 -4 -4 -4 -4 -4 -4 -4 -4 -4 -4 -4 -4 -4 -4 -4 -4 -4 -4 -4 -4 -4 -4 -4 -4 -4 -4 -4 -4 -4 -5 -5 -5 -5 -5 -5 -5 -5
-3 -3 -4 -4 -4 -4 -4 -4 -4 -4 -4 -4 -4 -4 -5 -5 -5 -5 -5 -5 -5 -5 -5 -5 -4 -4 -5 -5 -5 -4 -4 -4 -4 -5 -5 -5 -5 -5 -5 -5 -5 -5 -5
-4 -4 -4 -4 -4 -4 -4 -4 -4 -4 -5 -5 -5 -5 -5 -5 -5 -5 -5 -5 -5 -5 -5 -5 -5 -5 -5 -5 -5 -5 -5 -5 -5 -5 -5 -5 -5 -5 -5 -5 -5 -5 -5
-4 -4 -4 -4 -5 -5 -5 -5 -5 -5 -5 -5 -5 -5 -5 -5 -5 -5 -5 -5 -5 -5 -5 -5 -5 -5 -5 -5 -5 -5 -5 -5 -5 -5 -5 -5 -5 -5 -5 -5 -6 -6 -6
-4 -5 -5 -5 -5 -5 -5 -5 -5 -5 -5 -5 -5 -6 -6 -6 -6 -6 -6 -6 -6 -6 -6 -6 -6 -6 -6 -6 -6 -6 -6 -6 -6 -6 -6 -6 -6 -6 -6 -6 -6 -6 -6
Wind_Speed
5 5 5 4 3 2 1 0 1 1 2 3 3 4 5 4 5 6 7 7 7 7 7 8 9 8 7 7 6 6 7 7 10 8 6 6 7 8 7 8 9 9 10
6 6 6 5 4 4 3 2 1 1 1 1 2 3 3 4 4 4 6 6 7 8 8 8 9 7 8 7 7 7 7 7 8 9 7 6 8 8 8 8 7 8 9
7 7 7 6 7 6 5 4 2 1 1 1 0 1 2 2 3 3 4 4 5 6 7 8 8 8 8 7 8 8 7 6 6 7 7 6 6 5 6 6 7 6 7
8 7 7 7 7 6 5 5 4 3 2 1 1 1 1 1 2 3 4 4 5 5 6 6 7 7 8 8 8 8 7 7 6 6 6 6 6 5 5 5 6 5 5
8 8 8 7 7 6 6 6 5 5 4 3 2 2 1 1 1 2 3 4 5 7 7 7 7 7 8 7 7 7 7 7 6 6 6 6 6 5 6 5 6 5 6
7 7 7 7 7 7 7 7 6 6 6 5 4 2 2 1 3 4 4 4 5 6 7 7 7 8 7 8 8 8 8 8 8 8 7 8 9 8 7 6 5 5 6
6 7 7 7 7 7 7 7 7 7 6 5 4 3 2 3 4 4 5 5 5 6 6 6 5 6 7 8 8 8 9 9 9 8 8 8 9 8 8 8 7 7 6
6 7 7 7 7 7 7 7 7 6 5 4 4 4 3 3 4 4 5 4 4 4 5 5 6 6 6 7 8 8 8 8 8 8 8 8 8 8 8 8 7 4 3
6 6 7 7 7 7 7 7 7 6 5 4 4 5 4 3 4 5 5 4 4 5 5 5 6 6 7 8 7 8 8 7 6 8 8 8 9 8 6 4 4 4 3
5 6 6 6 6 6 6 6 6 5 5 4 4 4 4 4 5 5 5 3 4 5 5 5 5 6 8 8 7 7 7 7 6 6 6 5 5 5 6 6 6 5 2
5 5 5 6 6 5 5 5 5 5 5 4 4 5 5 5 5 5 5 4 4 5 5 5 5 7 8 8 7 6 7 6 5 4 4 4 4 3 3 3 3 3 3
5 5 5 5 5 5 5 5 6 5 5 5 5 5 5 5 5 5 6 6 6 5 5 5 6 7 8 7 6 6 6 4 3 2 2 3 3 3 2 2 2 2 1
4 5 5 5 5 5 5 5 5 5 4 5 5 5 5 5 5 6 7 7 7 5 5 7 8 7 7 5 5 6 4 2 2 2 2 3 3 3 2 1 2 3 5
4 4 4 4 5 5 4 4 4 4 4 5 5 6 6 6 5 5 5 5 5 5 5 6 5 4 4 4 4 3 2 2 3 2 2 2 2 2 1 1 0 1 2
4 4 4 4 4 4 4 4 5 4 5 6 5 5 6 6 7 9 7 5 5 5 5 3 3 2 2 3 3 3 2 2 2 2 1 1 1 1 1 1 1 0 1
4 4 4 4 4 4 4 5 5 6 7 7 7 6 6 8 10 9 9 8 7 6 3 2 2 2 2 2 2 3 3 2 2 2 1 1 1 1 1 1 0 1 2
4 4 4 4 4 4 4 5 6 6 6 6 7 8 8 10 9 7 7 6 4 4 2 2 2 2 2 2 2 3 3 3 2 2 1 1 1 1 0 0 1 1 2
4 4 4 4 4 4 4 4 5 5 6 5 6 7 9 9 9 7 6 4 3 3 2 3 3 2 2 2 2 3 3 2 2 2 1 1 1 1 1 1 1 2 2
4 4 4 4 4 4 4 4 4 5 5 5 5 5 7 8 7 7 5 3 3 3 3 3 3 2 2 3 2 2 2 2 2 2 1 1 1 0 1 1 1 3 2
4 5 4 4 4 4 4 4 4 4 4 5 5 5 5 5 4 5 4 4 3 3 3 3 3 3 2 2 2 2 2 2 2 2 1 1 1 1 1 1 2 2 2
4 4 5 4 4 4 4 4 4 4 4 5 5 5 6 4 3 4 3 3 3 3 3 3 3 3 2 2 2 2 2 2 2 1 1 1 1 1 1 1 2 2 2
4 4 4 4 4 4 4 4 4 4 4 5 5 5 6 4 3 3 3 3 4 3 3 3 3 3 2 2 2 2 2 2 2 1 1 1 0 0 1 1 2 2 3
4 4 4 4 4 5 4 4 4 4 4 4 4 4 3 3 4 4 4 4 3 3 3 3 3 3 2 3 2 2 2 2 2 2 1 1 0 0 1 2 2 2 2
4 4 5 4 4 4 4 4 4 4 4 4 4 4 4 3 3 4 4 3 3 3 3 3 3 4 4 3 3 3 3 3 2 2 2 2 1 1 1 1 2 2 2
4 5 5 4 4 4 4 4 4 4 4 4 4 4 4 4 4 4 3 3 4 3 4 4 3 3 4 4 4 4 4 4 3 2 2 2 2 2 2 2 2 2 3
5 5 5 4 5 5 4 5 5 5 4 4 4 4 4 4 4 4 3 3 3 4 4 4 4 4 5 4 5 5 4 3 3 2 1 1 2 2 2 2 3 3 3
Wind_Direction
24 24 25 15 6 45 53 9 288 276 234 224 230 231 227 233 232 224 224 222 228 231 233 235 235 238 239 239 244 247 247 248 255 265 273 267 253 250 250 249 248 246 243
28 30 24 17 27 45 47 26 344 312 269 234 229 240 237 237 236 233 233 231 231 235 237 238 240 240 244 244 242 247 251 255 259 266 272 268 261 250 249 252 253 249 247
29 33 29 27 31 33 30 24 26 15 360 4 238 256 247 236 233 238 241 244 245 246 246 242 242 239 243 248 250 249 251 257 259 263 274 275 275 261 258 260 256 258 256
25 28 26 24 26 26 24 22 21 17 12 6 359 269 278 260 256 256 251 250 253 255 254 253 251 246 246 248 249 252 256 258 261 259 265 272 280 273 260 256 262 263 260
21 22 20 16 16 19 20 18 16 18 16 26 26 17 0 356 335 308 277 264 259 257 255 255 254 252 254 254 255 255 258 257 260 261 261 269 269 265 256 253 253 260 264
20 17 15 16 17 16 14 14 15 14 16 22 19 6 355 341 347 336 309 272 263 260 259 258 255 247 251 257 260 261 258 256 259 258 260 258 258 258 252 250 248 257 260
15 11 12 13 15 12 10 12 11 8 12 16 6 355 339 342 348 337 325 285 270 265 264 266 267 263 262 259 262 262 258 258 255 254 259 260 259 257 248 246 243 249 259
9 8 7 8 9 8 9 9 5 2 2 3 357 345 336 336 343 331 320 286 284 288 287 286 282 274 270 273 269 265 264 262 262 259 260 263 264 259 246 242 245 256 296
2 359 358 359 1 2 3 359 355 353 352 349 343 340 330 325 341 331 321 293 295 296 294 292 289 290 292 293 274 268 271 276 274 274 277 276 272 265 251 236 223 225 264
346 345 348 351 353 355 351 346 344 343 341 337 334 330 323 318 331 332 324 295 295 295 293 289 289 297 304 298 279 272 270 280 287 293 294 290 279 255 237 226 217 216 240
332 335 342 345 346 345 343 340 340 341 342 339 330 329 327 321 322 327 326 306 295 293 292 291 291 304 304 301 293 277 281 291 278 278 286 290 291 274 260 264 247 219 217
326 332 338 339 341 338 339 340 341 343 344 344 339 336 334 324 317 317 318 313 308 290 287 290 295 304 305 301 297 301 300 297 280 282 285 290 295 291 300 313 328 0 355
322 327 330 333 337 337 335 336 337 339 339 336 335 332 331 330 324 322 315 313 311 296 288 291 296 299 299 294 307 312 298 284 274 272 276 294 303 302 312 356 37 59 52
309 315 319 323 329 333 331 328 330 331 331 330 330 327 327 327 330 331 321 311 307 303 298 295 296 299 301 311 315 311 300 282 267 262 279 300 319 319 318 329 88 106 75
298 306 312 317 320 323 323 321 319 319 322 321 320 322 323 323 327 330 325 316 315 314 312 300 302 307 316 327 325 324 325 325 320 311 299 304 318 324 329 359 36 62 108
294 303 307 310 313 316 320 322 321 320 329 334 336 334 324 324 328 328 327 328 327 328 322 312 314 316 318 324 326 329 331 334 329 317 296 288 284 285 322 4 42 103 122
286 293 296 300 304 310 315 318 321 324 329 335 342 343 342 340 339 338 338 338 340 349 342 330 327 326 325 329 331 327 328 332 331 316 297 275 249 239 215 183 132 119 121
283 285 288 290 297 300 304 308 310 315 321 325 332 338 343 345 348 351 356 2 359 1 346 335 332 330 325 325 328 329 331 332 333 326 324 310 264 199 181 175 164 148 143
274 279 283 289 289 291 294 299 303 307 310 316 327 335 342 343 350 2 7 3 346 342 339 334 331 330 326 326 330 331 332 331 337 341 342 354 5 90 132 140 133 135 135
266 277 285 284 283 287 291 294 297 304 307 311 320 329 338 345 349 352 354 346 338 332 332 329 327 324 327 328 332 336 338 338 343 352 355 9 13 38 101 115 127 133 130
268 269 271 276 275 278 284 285 287 292 297 302 306 320 336 328 323 329 332 330 326 323 323 321 318 320 326 328 326 328 331 329 334 337 346 358 14 38 71 95 108 114 115
259 264 266 270 274 275 280 281 282 284 290 294 301 311 319 318 316 319 318 319 319 318 315 311 308 313 320 316 310 312 313 315 319 314 311 329 16 87 105 114 114 117 121
253 259 263 267 271 276 277 277 279 281 284 287 292 298 301 302 308 312 314 315 317 317 316 314 313 317 323 317 309 299 287 290 292 274 244 237 227 181 152 146 143 141 137
246 251 257 263 267 270 273 275 276 276 277 281 284 285 286 289 293 301 306 309 312 313 315 312 309 316 326 322 314 306 300 306 303 271 235 212 211 201 174 162 162 158 150
244 248 251 255 260 266 271 273 275 273 272 274 278 281 283 285 287 293 298 302 304 304 308 306 300 304 310 313 311 306 314 327 322 299 243 214 206 200 186 174 169 162 158
245 248 250 252 256 258 263 267 269 269 268 271 272 274 276 278 281 285 288 292 298 298 298 296 298 300 299 293 295 302 314 320 320 314 275 230 207 194 182 179 172 171 165
Height
1431 1430 1429 1429 1429 1429 1430 1432 1433 1434 1435 1436 1438 1439 1441 1443 1444 1446 1447 1448 1450 1451 1452 1452 1453 1454 1455 1456 1457 1458 1458 1458 1456 1453 1454 1454 1454 1454 1454 1454 1454 1453 1453
1431 1430 1429 1429 1428 1427 1428 1429 1429 1430 1431 1432 1433 1435 1436 1438 1439 1440 1441 1443 1444 1444 1445 1446 1447 1448 1448 1449 1449 1450 1450 1450 1450 1447 1446 1446 1446 1446 1446 1446 1446 1445 1445
1433 1431 1430 1428 1427 1426 1427 1427 1427 1427 1427 1428 1429 1430 1431 1432 1434 1435 1435 1436 1437 1439 1439 1440 1440 1441 1441 1442 1442 1443 1442 1442 1442 1441 1439 1439 1438 1439 1438 1438 1438 1437 1437
1434 1432 1430 1428 1427 1427 1426 1425 1425 1425 1424 1424 1425 1426 1427 1428 1429 1429 1430 1431 1432 1433 1433 1433 1434 1434 1434 1435 1435 1435 1435 1435 1435 1434 1432 1432 1431 1431 1431 1430 1429 1429 1429
1435 1433 1431 1429 1428 1426 1425 1424 1423 1423 1422 1421 1421 1422 1423 1423 1424 1424 1424 1425 1426 1427 1427 1427 1427 1427 1427 1428 1428 1428 1428 1428 1427 1426 1425 1425 1424 1423 1423 1423 1423 1422 1422
1437 1435 1433 1431 1429 1426 1425 1424 1422 1421 1420 1419 1419 1419 1419 1419 1419 1419 1420 1421 1421 1421 1421 1421 1420 1420 1420 1421 1421 1421 1421 1421 1420 1419 1418 1417 1416 1417 1416 1416 1415 1415 1414
1438 1436 1434 1432 1429 1428 1426 1424 1422 1420 1419 1418 1418 1417 1416 1416 1416 1416 1416 1416 1416 1416 1415 1415 1414 1414 1414 1414 1414 1414 1414 1413 1413 1412 1411 1409 1409 1409 1409 1409 1408 1407 1407
1439 1437 1435 1432 1430 1428 1426 1424 1422 1420 1418 1417 1416 1415 1414 1414 1413 1413 1412 1412 1412 1411 1410 1409 1408 1408 1408 1407 1407 1407 1406 1406 1406 1405 1405 1403 1403 1403 1403 1403 1402 1401 1401
1440 1438 1435 1433 1430 1428 1426 1423 1421 1419 1417 1416 1414 1413 1412 1411 1410 1409 1409 1408 1407 1406 1406 1404 1403 1402 1401 1401 1401 1400 1399 1398 1399 1399 1398 1397 1396 1396 1396 1396 1395 1395 1394
1440 1438 1435 1433 1431 1428 1425 1423 1420 1418 1416 1414 1412 1411 1409 1408 1407 1406 1405 1404 1403 1402 1401 1400 1398 1397 1396 1395 1395 1394 1392 1391 1391 1391 1390 1390 1389 1389 1388 1389 1389 1389 1388
1440 1438 1435 1433 1430 1428 1425 1422 1419 1417 1414 1412 1410 1408 1407 1405 1403 1402 1401 1400 1399 1398 1396 1395 1394 1393 1392 1391 1390 1389 1387 1386 1385 1385 1384 1383 1382 1382 1381 1382 1383 1383 1383
1439 1436 1434 1432 1429 1426 1423 1421 1418 1415 1413 1410 1408 1406 1404 1402 1400 1398 1397 1396 1395 1394 1393 1391 1390 1389 1387 1386 1385 1384 1383 1382 1381 1380 1379 1378 1376 1376 1376 1377 1378 1378 1379
1437 1435 1433 1430 1428 1425 1422 1419 1417 1414 1411 1409 1406 1404 1401 1399 1397 1395 1394 1393 1392 1391 1389 1388 1386 1385 1383 1382 1381 1380 1379 1377 1376 1375 1374 1374 1373 1372 1371 1372 1373 1373 1374
1435 1433 1431 1428 1426 1423 1421 1418 1415 1412 1410 1408 1405 1402 1399 1396 1394 1392 1390 1389 1388 1387 1385 1384 1383 1381 1380 1379 1377 1376 1375 1374 1372 1371 1371 1370 1369 1369 1368 1368 1368 1369 1371
1433 1431 1428 1426 1424 1421 1419 1417 1414 1411 1409 1407 1404 1401 1398 1394 1393 1391 1389 1387 1385 1383 1382 1380 1378 1377 1376 1375 1373 1372 1371 1370 1369 1368 1367 1367 1366 1366 1366 1366 1366 1366 1368
1431 1429 1426 1424 1422 1419 1417 1414 1412 1410 1407 1404 1402 1400 1396 1394 1391 1389 1387 1385 1383 1381 1379 1377 1375 1374 1373 1371 1370 1369 1368 1367 1366 1366 1365 1365 1364 1364 1364 1365 1365 1366 1367
1428 1426 1424 1422 1420 1417 1415 1412 1410 1408 1405 1403 1400 1398 1395 1392 1389 1387 1385 1383 1381 1379 1377 1375 1373 1372 1371 1370 1369 1368 1367 1366 1365 1364 1364 1363 1363 1363 1363 1364 1364 1365 1366
1425 1423 1422 1420 1417 1415 1413 1411 1408 1405 1403 1400 1398 1396 1393 1390 1387 1385 1383 1381 1380 1378 1376 1374 1373 1371 1370 1369 1368 1367 1366 1365 1364 1363 1363 1362 1362 1362 1362 1363 1364 1364 1366
1422 1420 1418 1417 1415 1413 1411 1409 1406 1404 1401 1399 1396 1394 1392 1389 1386 1384 1382 1380 1378 1377 1375 1374 1373 1371 1370 1369 1367 1366 1365 1364 1363 1362 1362 1362 1361 1361 1362 1362 1363 1364 1365
1418 1417 1415 1413 1412 1410 1408 1406 1404 1402 1399 1397 1394 1392 1390 1387 1385 1383 1381 1379 1378 1376 1375 1374 1372 1371 1369 1368 1367 1365 1364 1363 1362 1362 1361 1361 1361 1361 1361 1362 1363 1364 1365
1414 1413 1411 1410 1408 1407 1405 1403 1402 1400 1397 1395 1393 1391 1389 1386 1384 1382 1380 1379 1377 1375 1374 1373 1371 1370 1369 1367 1366 1365 1364 1363 1362 1362 1361 1361 1361 1361 1362 1362 1363 1364 1365
1410 1409 1407 1406 1404 1403 1402 1400 1399 1397 1395 1393 1391 1389 1387 1385 1383 1381 1379 1378 1376 1375 1374 1372 1370 1369 1368 1367 1366 1365 1364 1363 1362 1362 1361 1361 1361 1361 1362 1362 1363 1364 1365
1406 1405 1403 1402 1401 1400 1398 1397 1396 1394 1393 1391 1389 1387 1385 1383 1381 1379 1378 1376 1375 1374 1372 1370 1369 1368 1367 1366 1365 1364 1363 1363 1362 1362 1361 1361 1361 1361 1362 1362 1363 1364 1365
1402 1401 1399 1398 1397 1396 1395 1394 1392 1391 1389 1388 1386 1385 1383 1381 1379 1378 1376 1375 1373 1372 1370 1369 1368 1367 1366 1365 1364 1363 1362 1362 1362 1361 1361 1361 1361 1361 1362 1362 1363 1364 1365
1397 1396 1395 1394 1393 1392 1391 1390 1389 1387 1386 1385 1383 1382 1380 1378 1377 1375 1374 1373 1371 1370 1368 1367 1366 1365 1364 1363 1363 1362 1361 1361 1360 1360 1360 1360 1361 1361 1361 1362 1363 1364 1365
1393 1392 1391 1390 1389 1388 1387 1386 1385 1383 1382 1381 1380 1379 1377 1376 1374 1373 1371 1370 1369 1367 1366 1365 1364 1363 1363 1362 1361 1361 1360 1360 1359 1359 1359 1359 1359 1360 1360 1361 1362 1363 1364